Weather History for KWRL - October, 2012

Change the Weather History Date:

Thursday, October 4, 2012

  Actual Average Record
Temperature  
Mean Temperature 42 °F 50 °F  
Max Temperature 51 °F 65 °F 87 °F (1963)
Min Temperature 32 °F 35 °F 25 °F (1966)
Degree Days  
Heating Degree Days 23 15  
Month to date heating degree days 53 57  
Since 1 July heating degree days 141 314  
Cooling Degree Days 0 0  
Month to date cooling degree days 0 0  
Year to date cooling degree days 901 535  
Moisture  
Dew Point 26 °F    
Average Humidity 55    
Maximum Humidity 78    
Minimum Humidity 32    
Precipitation  
Precipitation T in 0.03 in 0.44 in (2009)
Month to date precipitation T 0.13  
Year to date precipitation 1.79 6.43  
Sea Level Pressure  
Sea Level Pressure 30.34 in    
Wind  
Wind Speed 5 mph (NNW)    
Max Wind Speed 13 mph    
Max Gust Speed 17 mph    
Visibility 10 miles    
Events      
T = Trace of Precipitation, MM = Missing Value Source: NWS Daily Summary

Daily Weather History Graph

Daily Weather History Graph

Search for Another Location

Airport or City:

Trip Planner

Search our weather history database for the weather conditions in past years. The results will help you decide how hot, cold, wet, or windy it might be!

Date:

Astronomy

Oct. 04, 2012 Rise Set
Actual Time 7:13 AM MDT 6:46 PM MDT
Civil Twilight 6:44 AM MDT 7:14 PM MDT
Nautical Twilight 6:11 AM MDT 7:48 PM MDT
Astronomical Twilight 5:37 AM MDT 8:21 PM MDT
Moon 9:14 PM MDT (10/4) 11:42 AM MDT (10/4)
Length of Visible Light 12h 30m
Length of Day
11h 32m
Waning Gibbous, 81% of the Moon is Illuminated
Oct 4
Waning Gibbous
Oct 8
Last Quarter
Oct 15
New
Oct 21
First Quarter
Oct 29
Full

Hourly Weather History & Observations

Time (MDT) Temp. Windchill Dew Point Humidity Pressure Visibility Wind Dir Wind Speed Gust Speed Precip Events Conditions
12:53 AM 32.0 °F 26.4 °F 27.0 °F 82% 30.44 in 10.0 mi SW 5.8 mph - N/A   Clear
1:41 AM 33.8 °F 29.6 °F 28.4 °F 81% 30.39 in 10.0 mi South 4.6 mph - N/A   Mostly Cloudy
1:53 AM 35.1 °F 28.6 °F 28.0 °F 76% 30.45 in 10.0 mi WSW 8.1 mph - N/A   Overcast
2:53 AM 37.0 °F 34.5 °F 28.0 °F 70% 30.42 in 10.0 mi West 3.5 mph - N/A   Overcast
3:53 AM 36.0 °F 32.1 °F 28.0 °F 73% 30.41 in 10.0 mi NW 4.6 mph - N/A   Overcast
4:53 AM 35.1 °F 32.2 °F 28.0 °F 76% 30.40 in 10.0 mi East 3.5 mph - N/A   Overcast
5:46 AM 35.6 °F - 28.4 °F 75% 30.35 in 10.0 mi Calm Calm - N/A   Overcast
5:53 AM 35.1 °F - 28.0 °F 76% 30.40 in 10.0 mi Calm Calm - N/A   Overcast
6:53 AM 35.1 °F - 28.0 °F 76% 30.40 in 10.0 mi Calm Calm - N/A   Overcast
7:53 AM 35.1 °F - 27.0 °F 72% 30.41 in 10.0 mi Calm Calm - N/A   Overcast
8:53 AM 37.9 °F - 28.0 °F 68% 30.40 in 10.0 mi Calm Calm - N/A   Clear
9:53 AM 39.0 °F - 27.0 °F 62% 30.40 in 10.0 mi Calm Calm - N/A   Scattered Clouds
10:53 AM 44.1 °F - 26.1 °F 49% 30.36 in 10.0 mi Calm Calm - N/A   Clear
11:53 AM 45.0 °F - 24.1 °F 44% 30.33 in 10.0 mi Calm Calm - N/A   Partly Cloudy
12:53 PM 48.0 °F - 24.1 °F 39% 30.32 in 10.0 mi Variable 4.6 mph - N/A   Clear
1:53 PM 48.0 °F - 23.0 °F 37% 30.27 in 10.0 mi NW 4.6 mph - N/A   Clear
2:53 PM 50.0 °F - 21.9 °F 33% 30.24 in 10.0 mi NNW 4.6 mph - N/A   Clear
3:53 PM 48.9 °F - 23.0 °F 36% 30.23 in 10.0 mi North 6.9 mph - N/A   Clear
4:53 PM 48.0 °F - 21.9 °F 36% 30.23 in 10.0 mi NNE 6.9 mph - N/A   Clear
5:53 PM 48.0 °F - 21.9 °F 36% 30.23 in 10.0 mi North 4.6 mph - N/A   Partly Cloudy
6:53 PM 46.0 °F 42.5 °F 24.1 °F 42% 30.25 in 10.0 mi NNE 6.9 mph - N/A   Overcast
7:53 PM 46.0 °F 43.1 °F 24.1 °F 42% 30.25 in 10.0 mi North 5.8 mph - N/A   Overcast
8:53 PM 44.1 °F 37.7 °F 23.0 °F 43% 30.27 in 10.0 mi North 12.7 mph - N/A   Overcast
9:53 PM 43.0 °F 36.4 °F 24.1 °F 47% 30.29 in 10.0 mi NNW 12.7 mph 17.3 mph N/A   Overcast
10:53 PM 41.0 °F 35.2 °F 28.9 °F 62% 30.29 in 10.0 mi NNW 9.2 mph - 0.00 in   Overcast
11:53 PM 39.0 °F 32.3 °F 30.9 °F 73% 30.30 in 10.0 mi NNW 10.4 mph - N/A   Overcast